Terminal Aerodrome Forecast
Issued by NWS

Home | Current Version | Previous Version | Text Only | Print | Product List | Glossary On
Versions: 1 2 3 4 5 6 7 8 9 10 11 12 13 14 15 16 17 18 19 20 21 22 23 24 25 26 27 28 29 30 31 32 33 34 35 36 37 38 39 40 41 42 43 44 45 46 47 48 49 50
000
FTUS45 KVEF 012052 AAA
TAFLAS
TAF AMD
KLAS 012052Z 0121/0218 14008G18KT P6SM FEW250
     FM020000 21012G20KT P6SM SCT120 BKN220
     FM020400 20017G25KT P6SM VCTS BKN100CB BKN200
     FM021400 15008KT P6SM SKC=

USA.gov is the U.S. government's official web portal to all federal, state and local government web resources and services.